Terminal Aerodrome Forecast
Issued by NWS Wilmington, OH

Current Version | Previous Version | Graphics & Text | Print | Product List | Glossary On
Versions: 1 2 3 4 5 6 7 8 9 10 11 12 13 14 15 16 17 18 19 20 21 22 23 24 25 26 27 28 29 30 31 32
000
FTUS41 KILN 181303 AAA
TAFCVG
TAF AMD
KCVG 181303Z 1813/1918 27010KT P6SM OVC010
     FM181500 25008KT P6SM OVC015
     FM182200 23006KT P6SM BKN025
     FM190300 20005KT P6SM SCT025
     FM190600 19004KT P6SM BKN250
     FM191200 13007KT P6SM OVC060=

USA.gov is the U.S. government's official web portal to all federal, state and local government web resources and services.